116P/Wild 4 (2022)

Japanese version
Home page
Updated on October 14, 2023

---------------------------------------------------------------------

* Profile

* Pictures

* Orbital Elements

Epoch 2023 Feb. 25.0 TT = JDT 2460000.5
T 2022 July 16.83411 TT                                 Rudenko
q   2.1968704            (2000.0)            P               Q
n   0.15121195     Peri.  173.26348     -0.96917895     +0.24532800
a   3.4893563      Node    20.97929     -0.22886023     -0.86277111
e   0.3704081      Incl.    3.60338     -0.09118750     -0.44208618
P   6.52
>From 2937 observations 2014 Oct. 31-2023 Mar. 17, mean residual 0".7.

* Finding Charts

* Magnitudes Graph

        m1 = 3.5 + 5 log d + 25.0 log r

---------------------------------------------------------------------

The orbital elements are published on M.P.E.C. 2023-F81.
The charts are made with StellaNavigator Ver.10 (AstroArts).
The magnitudes graphs are made with Comet for Windows.

---------------------------------------------------------------------

Copyright(C) Seiichi Yoshida (comet@aerith.net). All rights reserved.